_date_;bhuscon100s;bhuscon100slag;bhuseuconmacro;bhuseuconmacrolag;bhuseuconmicexp;bhuseuconmicexplag;bhuseuconmini;bhuseuconminilag;bhuseuconredexp;bhuseuconredexplag;bhuseuconredmic;bhuseuconredmiclag;nkohfd;nkohfdpcy
1995-01-01;70.271693774681112;NA;72.90464257324016;NA;69.43688000025536;NA;73.085379283252096;NA;80.850500833330912;NA;62.335587544554208;NA;288718;NA
1995-04-01;62.930654656256048;70.271693774681112;69.6965687967498;72.90464257324016;59.88519432016932;69.43688000025536;64.136801477416472;73.085379283252096;70.988849503140128;80.850500833330912;53.984540839537024;62.335587544554208;302160;NA
1995-07-01;73.142523270909568;62.930654656256048;79.731593844666512;69.6965687967498;72.207164676426448;59.88519432016932;75.57893165403512;64.136801477416472;82.119441667677712;70.988849503140128;66.246804626203624;53.984540839537024;291117;NA
1995-10-01;75.462391273618816;73.142523270909568;86.31862226772976;79.731593844666512;72.527111723856784;72.207164676426448;73.626713364166224;75.57893165403512;82.299355058960544;82.119441667677712;65.051546461029392;66.246804626203624;314767;NA
1996-01-01;76.231125511486272;75.462391273618816;86.741074983560768;86.31862226772976;74.678589249322976;72.527111723856784;78.599815245668176;73.626713364166224;82.373190776497504;82.299355058960544;71.172332978996056;65.051546461029392;292565;1.3324420368664214
1996-04-01;77.678769040529408;76.231125511486272;84.5254193705996;86.741074983560768;78.446204521993056;74.678589249322976;82.390178856342448;78.599815245668176;84.874180251602304;82.373190776497504;76.017988645277328;71.172332978996056;304784;0.86841408525284432
1996-07-01;80.657557392029888;77.678769040529408;90.140670445246752;84.5254193705996;82.01825370594048;78.446204521993056;86.95002248605792;82.390178856342448;88.64090190821848;84.874180251602304;79.93799279749576;76.017988645277328;298749;2.6216263564134092
1996-10-01;78.844324350391008;80.657557392029888;91.124762676978992;90.140670445246752;78.057224138580752;82.01825370594048;81.264477070046512;86.95002248605792;84.608986785625952;88.64090190821848;74.99540107384104;79.93799279749576;322425;2.4329106926710864
1997-01-01;83.14099380865272;78.844324350391008;92.887630427553552;91.124762676978992;83.813857281251248;78.057224138580752;88.07572427235384;81.264477070046512;91.289758108645088;84.608986785625952;80.326246248268288;74.99540107384104;299933;2.5184147112607524
1997-04-01;90.443179404191888;83.14099380865272;97.950691429329968;92.887630427553552;92.756051927752288;83.813857281251248;95.186156757384112;88.07572427235384;98.891152937351232;91.289758108645088;88.832900176161088;80.326246248268288;317855;4.2886109507060736
1997-07-01;92.694871783372224;90.443179404191888;96.83212862116288;97.950691429329968;95.756872649872976;92.756051927752288;99.275705650781312;95.186156757384112;102.38287364562688;98.891152937351232;91.991136337485616;88.832900176161088;304627;1.967537966654276
1997-10-01;98.1917207381208;92.694871783372224;99.772864310693376;96.83212862116288;102.0359738600468;95.756872649872976;103.47932751324206;99.275705650781312;108.20174993003556;102.38287364562688;96.923127300635872;91.991136337485616;331307;2.7547491664728252
1998-01-01;99.962334036894672;98.1917207381208;99.982504124485456;99.772864310693376;103.70251209849018;102.0359738600468;104.30584401681504;103.47932751324206;108.10718171019554;108.20174993003556;99.633134377028928;96.923127300635872;307877;2.6485915187725252
1998-04-01;102.89329686224992;99.962334036894672;101.94921641623326;99.982504124485456;106.1622846035085;103.70251209849018;105.7307310858339;104.30584401681504;109.85386050172954;108.10718171019554;101.92852833993944;99.633134377028928;325243;2.3243302763838792
1998-07-01;102.0940576889532;102.89329686224992;99.109823920229856;101.94921641623326;104.91767448580142;106.1622846035085;106.21502868221626;105.7307310858339;108.31633602471304;109.85386050172954;102.27749690728628;101.92852833993944;315890;3.6973085117208984
1998-10-01;102.40307076992422;102.0940576889532;97.71578244594776;99.109823920229856;107.29585561899024;104.91767448580142;111.01702111012292;106.21502868221626;109.31622520953178;108.31633602471304;107.64065358450568;102.27749690728628;345602;4.3147292390441464
1999-01-01;105.96425307658658;102.40307076992422;103.30091097525438;97.71578244594776;111.1194090338854;107.29585561899024;114.45116295354246;111.01702111012292;112.7476456726878;109.31622520953178;111.38384899283954;107.64065358450568;319900;3.9051309451501704
1999-04-01;107.25471459444438;105.96425307658658;102.89043287914228;103.30091097525438;113.00594689183116;111.1194090338854;115.80501067796546;114.45116295354246;114.862841191577;112.7476456726878;112.57083085772046;111.38384899283954;335181;3.0555615339915132
1999-07-01;111.77468577017424;107.25471459444438;108.04110846233624;102.89043287914228;116.17303358040554;113.00594689183116;113.90982887262832;115.80501067796546;116.83730191828082;114.862841191577;113.1082289210108;112.57083085772046;327208;3.5828927791319744
1999-10-01;113.41580697294196;111.77468577017424;110.72656022321028;108.04110846233624;118.19964562845416;116.17303358040554;117.45804368511142;113.90982887262832;120.6328615880226;116.83730191828082;114.39628499341184;113.1082289210108;363279;5.1148430853988016
2000-01-01;121.29502307437104;113.41580697294196;114.23573772691122;110.72656022321028;125.0905977250894;118.19964562845416;122.63026074033686;117.45804368511142;125.26959756046174;120.6328615880226;121.9292154532471;114.39628499341184;338207;5.722725851828692
2000-04-01;119.13162517757014;121.29502307437104;112.55897697203948;114.23573772691122;121.49567756184512;125.0905977250894;118.12745359515318;122.63026074033686;121.47462232468696;125.26959756046174;118.05030987438982;121.9292154532471;358838;7.0579776299969368
2000-07-01;117.41534491889048;119.13162517757014;109.78887867072884;112.55897697203948;120.65541490739102;121.49567756184512;118.24152656421672;118.12745359515318;120.43660698159612;121.47462232468696;118.13250702111214;118.05030987438982;347287;6.1364636561453304
2000-10-01;115.35911916260262;117.41534491889048;107.48259868120798;109.78887867072884;116.63634676602348;120.65541490739102;114.9354605499248;118.24152656421672;116.11766211953948;120.43660698159612;115.11593287039318;118.13250702111214;372552;2.5525835514852212
2001-01-01;104.43843958602752;115.35911916260262;99.17692955934;107.48259868120798;107.97781887832226;116.63634676602348;110.88894528099528;114.9354605499248;109.0820259686911;116.11766211953948;108.60558998199422;115.11593287039318;345126;2.0457885259619112
2001-04-01;99.483293591936592;104.43843958602752;94.24061203159848;99.17692955934;104.3345966562815;107.97781887832226;107.6969522357669;110.88894528099528;103.93538894599512;109.0820259686911;106.93988121932514;108.60558998199422;361387;0.71034840234311944
2001-07-01;95.632687503957776;99.483293591936592;89.964458378533392;94.24061203159848;100.80713451916812;104.3345966562815;104.91821744232502;107.6969522357669;99.793083725636608;103.93538894599512;104.72617363286124;106.93988121932514;348981;0.48778099957671464
2001-10-01;97.151385122155552;95.632687503957776;94.837219466455856;89.964458378533392;104.7897106991037;100.80713451916812;110.00539229289052;104.91821744232502;104.92827639117602;99.793083725636608;108.18037610800718;104.72617363286124;372367;-0.049657497476862656
2002-01-01;103.8944364599999;97.151385122155552;102.98124400566868;94.837219466455856;107.87835435448588;104.7897106991037;109.19287864938162;110.00539229289052;108.95915283933316;104.92827639117602;107.38346138383424;108.18037610800718;351186;1.7558804610489976
2002-04-01;105.11425677946848;103.8944364599999;105.52650968753466;102.98124400566868;107.54676866399206;107.87835435448588;107.76799158036276;109.19287864938162;108.33419768754046;108.95915283933316;106.56818036913922;107.38346138383424;368467;1.9591186179912288
2002-07-01;102.27921180307782;105.11425677946848;99.751916594770448;105.52650968753466;106.66382109055606;107.54676866399206;110.54672637380464;107.76799158036276;109.1814397161589;108.33419768754046;106.66744088672386;106.56818036913922;357537;2.4517094053831068
2002-10-01;96.960516147809328;102.27921180307782;97.15996499382848;99.751916594770448;99.382364662907712;106.66382109055606;102.25355561794668;110.54672637380464;101.69364363805418;109.1814397161589;99.211547882912848;106.66744088672386;387861;4.1609487414298264
2003-01-01;91.097614848732256;96.960516147809328;91.974652056850192;97.15996499382848;94.60256635852632;99.382364662907712;100.28733446801368;102.25355561794668;97.7269256185684;101.69364363805418;95.89175265863056;99.211547882912848;360334;2.6048874385653288
2003-04-01;92.679273854251584;91.097614848732256;94.500062300978928;91.974652056850192;96.441483976200416;94.60256635852632;102.0114068197555;100.28733446801368;98.92196563862896;97.7269256185684;98.191284771687728;95.89175265863056;375525;1.9155039664338956
2003-07-01;102.78871027550176;92.679273854251584;108.70446016230862;94.500062300978928;103.338066637465;96.441483976200416;106.75636276313038;102.0114068197555;104.8576493264745;98.92196563862896;104.14767699620976;98.191284771687728;368759;3.1386961349454844
2003-10-01;96.290066257868352;102.78871027550176;102.00161071738226;108.70446016230862;97.888482930008048;103.338066637465;101.35599976977784;106.75636276313038;99.632850395831472;104.8576493264745;98.77624401869704;104.14767699620976;395008;1.8426704412147556
2004-01-01;101.73998890274084;96.290066257868352;109.1352465566491;102.00161071738226;102.43491157588204;97.888482930008048;105.3314756941115;101.35599976977784;103.74194008229498;99.632850395831472;103.1209512746268;98.77624401869704;371658;3.1426398841075232
2004-04-01;103.15193764556626;101.73998890274084;112.64204992066446;109.1352465566491;100.37112641432322;102.43491157588204;102.72385035426494;105.3314756941115;101.40778276652408;103.74194008229498;101.03053940824638;103.1209512746268;384908;2.4986352439917424
2004-07-01;101.79685119895724;103.15193764556626;109.60341660050248;112.64204992066446;101.87887940604148;100.37112641432322;104.49095633047444;102.72385035426494;103.05504781059028;101.40778276652408;102.51530127688424;101.03053940824638;377978;2.500006779495556
2004-10-01;105.1274940974908;101.79685119895724;112.7879205006591;109.60341660050248;101.9329392665886;101.87887940604148;104.39088622147498;104.49095633047444;103.12183045813004;103.05504781059028;102.44319412039068;102.51530127688424;404232;2.3351425793908032
2005-01-01;106.29317992844286;105.1274940974908;113.83740969352212;112.7879205006591;103.09565570708586;101.9329392665886;107.1125845303851;104.39088622147498;104.55818788577776;103.12183045813004;104.4043584266055;102.44319412039068;378110;1.7360046063854328
2005-04-01;102.45603412835542;106.29317992844286;109.4949272995955;113.83740969352212;100.23295435207248;103.09565570708586;104.9752539268568;107.1125845303851;101.23709242363846;104.55818788577776;102.65282513734314;104.4043584266055;396636;3.0469618714082268
2005-07-01;106.30014824070118;102.45603412835542;114.7198037218564;109.4949272995955;102.25915876039788;100.23295435207248;105.27443920957974;104.9752539268568;102.0175004743578;101.23709242363846;104.55996564948112;102.65282513734314;390294;3.2583906999878344
2005-10-01;108.61468069544494;106.30014824070118;115.57659657940612;114.7198037218564;105.8391469996008;102.25915876039788;109.17887578931754;105.27443920957974;105.79402961333818;102.0175004743578;108.00770551426924;104.55996564948112;416233;2.9688396762255432
2006-01-01;112.36156454578774;108.61468069544494;118.7181721745305;115.57659657940612;108.9120195493771;105.8391469996008;108.05317400302162;109.17887578931754;106.7907752420708;105.79402961333818;109.94534383926392;108.00770551426924;387917;2.5936896670281096
2006-04-01;111.04889221719104;112.36156454578774;113.7378089926597;118.7181721745305;109.0527369541227;108.9120195493771;109.94835580835876;108.05317400302162;108.0412699796232;106.7907752420708;110.25372460352528;109.94534383926392;410518;3.499934448713682
2006-07-01;109.2324002397061;111.04889221719104;109.86168333115016;113.7378089926597;106.40834114960298;109.0527369541227;105.68769746136622;109.94835580835876;104.77452546379104;108.0412699796232;107.18363742900522;110.25372460352528;398960;2.2203774590436876
2006-10-01;109.36241268557584;109.2324002397061;106.3468919672076;109.86168333115016;108.05972531390026;106.40834114960298;107.68294937570282;105.68769746136622;106.16856073625516;104.77452546379104;109.25568300486352;107.18363742900522;427651;2.7431750966405932
2007-01-01;108.62926725711402;109.36241268557584;104.02156304245994;106.3468919672076;106.1952450992007;108.05972531390026;105.91584339949332;107.68294937570282;104.94194205709194;106.16856073625516;106.925142308674;109.25568300486352;401497;3.5007488715369516
2007-04-01;114.42343612810118;108.62926725711402;107.53180043094718;104.02156304245994;111.37051904992466;106.1952450992007;108.2953228012128;105.91584339949332;107.4592214169811;104.94194205709194;112.44571989870452;106.925142308674;423544;3.1730642748917236
2007-07-01;111.06835735004988;114.42343612810118;105.00993541637162;107.53180043094718;106.9938717456431;111.37051904992466;105.27443920957974;108.2953228012128;103.55987047900208;107.4592214169811;108.78885978723964;112.44571989870452;417332;4.6049729296170128
2007-10-01;107.74348570945422;111.06835735004988;99.871465134686352;105.00993541637162;103.97115007686938;106.9938717456431;104.03466445422026;105.27443920957974;100.68709052695736;103.55987047900208;107.04974094841726;108.78885978723964;445093;4.0785593860414248
2008-01-01;99.363843440672352;107.74348570945422;91.789370459086304;99.871465134686352;96.370257632461024;103.97115007686938;97.878824301890608;104.03466445422026;92.804680354348896;100.68709052695736;101.13393652698068;107.04974094841726;411979;2.6107293454247448
2008-04-01;89.49438722682256;99.363843440672352;86.590360113572944;91.789370459086304;85.341799783063552;96.370257632461024;85.324995199040112;97.878824301890608;81.980032032928192;92.804680354348896;89.339288107322048;101.13393652698068;432216;2.04748503107115
2008-07-01;75.902373719997008;89.49438722682256;69.996669558321176;86.590360113572944;76.79459493130208;85.341799783063552;79.58241329849696;85.324995199040112;75.943246392463184;81.980032032928192;80.761037793211408;89.339288107322048;414744;-0.62012977677244896
2008-10-01;70.363903109283072;75.902373719997008;64.125031995737656;69.996669558321176;75.822942743474832;76.79459493130208;76.404423113332656;79.58241329849696;77.326903514986064;75.943246392463184;75.933748417452224;80.761037793211408;430782;-3.2152830981390436
2009-01-01;80.432828661863392;70.363903109283072;80.34632313717264;64.125031995737656;82.129664764616784;75.822942743474832;77.829310182351536;76.404423113332656;81.45724504097032;77.326903514986064;80.555034156129904;75.933748417452224;406436;-1.3454569286298624
2009-04-01;80.586437224452816;80.432828661863392;81.40702016864368;80.34632313717264;86.932626542818592;82.129664764616784;83.130628110980048;77.829310182351536;86.959901993039584;81.45724504097032;84.797875055155488;80.555034156129904;432495;0.064551057804429488
2009-07-01;95.02125461657328;80.586437224452816;99.145658249449184;81.40702016864368;99.31754266779456;86.932626542818592;90.126987626946752;83.130628110980048;99.244913993995776;86.959901993039584;92.799442422550112;84.797875055155488;418304;0.85836082016859104
2009-10-01;102.99529236541762;95.02125461657328;107.36451972585902;99.145658249449184;104.40306537422194;99.31754266779456;94.743867741194;90.126987626946752;104.6659675310653;99.244913993995776;96.971989855017632;92.799442422550112;439184;1.950406470093924
2010-01-01;102.26337474496756;102.99529236541762;107.58518643802868;107.36451972585902;100.98209990005944;104.40306537422194;92.49246416860216;94.743867741194;102.59321059446834;104.6659675310653;93.235257057041632;96.971989855017632;424088;4.3431192118808416
2010-04-01;107.67681924106848;102.26337474496756;107.92665379813246;107.58518643802868;106.8397306585773;100.98209990005944;101.55511494350132;92.49246416860216;108.75275293718268;102.59321059446834;100.82272208122942;93.235257057041632;445520;3.0115955097746784
2010-07-01;111.23087525440778;107.67681924106848;114.90774551436456;107.92665379813246;107.6211168903522;106.8397306585773;100.54348612626894;101.55511494350132;108.64137549534062;108.75275293718268;101.150999897843;100.82272208122942;434182;3.7958040085679376
2010-10-01;112.79486763454874;111.23087525440778;115.48829220701026;114.90774551436456;107.5228481632224;107.6211168903522;101.31296614531016;100.54348612626894;107.8739835798209;108.64137549534062;102.3397954526594;101.150999897843;457086;4.0761958541294832
2011-01-01;109.87891975769604;112.79486763454874;111.82814738544822;115.48829220701026;104.77137921156986;107.5228481632224;100.54348612626894;101.31296614531016;105.76695866850354;107.8739835798209;100.51666577717922;102.3397954526594;433924;2.3193299503876608
2011-04-01;104.77184190408892;109.87891975769604;104.98829669017222;111.82814738544822;99.965729429597424;104.77137921156986;96.58201306199936;100.54348612626894;100.47631310403748;105.76695866850354;97.02782733902992;100.51666577717922;459850;3.2164661519123784
2011-07-01;93.77522598816768;104.77184190408892;90.860834208489792;104.98829669017222;89.06651913039688;99.965729429597424;86.763885128123072;96.58201306199936;87.873342235230816;100.47631310403748;89.107435577806224;97.02782733902992;440138;1.3717749699434734
2011-10-01;89.27732501026928;93.77522598816768;86.987469348296768;90.860834208489792;87.26438168827376;89.06651913039688;86.99203106625016;86.763885128123072;86.077742458984432;87.873342235230816;88.848940457475008;89.107435577806224;459902;0.61607662453018184
2012-01-01;92.924063486638032;89.27732501026928;92.007616363377728;86.987469348296768;92.943662926562304;87.26438168827376;92.49246416860216;86.99203106625016;91.586297379506832;86.077742458984432;94.292480591481264;88.848940457475008;438262;0.99971423567259968
2012-04-01;96.326052905651648;92.924063486638032;95.21756071362728;92.007616363377728;96.078771244009936;92.943662926562304;94.986016539385168;92.49246416860216;95.0285777658524;91.586297379506832;96.51214001802728;94.292480591481264;460928;0.23442426878330648
2012-07-01;96.465001511606704;96.326052905651648;95.886473776330032;95.21756071362728;96.236691125987552;96.078771244009936;96.111718325681104;94.986016539385168;95.223663504344928;95.0285777658524;97.323282882575648;96.51214001802728;444345;0.95583657852764688
2012-10-01;90.850047771691936;96.465001511606704;90.139891408034032;95.886473776330032;92.958386125313664;96.236691125987552;93.076831873983968;96.111718325681104;91.17382162217568;95.223663504344928;95.136445729097488;97.323282882575648;466806;1.501189383825241
2013-01-01;95.041903289214112;90.850047771691936;93.840959717638208;90.139891408034032;96.679995737891792;92.958386125313664;96.16875481021288;93.076831873983968;95.12530219770248;91.17382162217568;97.998715576600592;95.136445729097488;444951;1.5262559838635336
2013-04-01;95.224922686876224;95.041903289214112;97.153837204324928;93.840959717638208;95.130990531710864;96.679995737891792;92.421424824006288;96.16875481021288;93.42707638402248;95.12530219770248;95.087070855443024;97.998715576600592;468240;1.5863648986392586
2013-07-01;98.56473462743648;95.224922686876224;101.31880596618972;97.153837204324928;99.341215839392144;95.130990531710864;97.209414391848864;92.421424824006288;98.41283054619704;93.42707638402248;98.748579887330256;95.087070855443024;453519;2.0646119569253552
2013-10-01;103.1241898594538;98.56473462743648;103.56404353051762;101.31880596618972;103.49199805106908;99.341215839392144;101.89733385069196;97.209414391848864;103.3251519009437;98.41283054619704;102.33798176272392;98.748579887330256;477223;2.2315480092372388
2014-01-01;100.48788881870282;103.1241898594538;101.19142424954854;103.56404353051762;98.468436323008784;103.49199805106908;95.385271931107584;101.89733385069196;98.195973630966064;103.3251519009437;96.588385324667472;102.33798176272392;453788;1.9860613865346988
2014-04-01;101.36609868678694;100.48788881870282;100.9566652048101;101.19142424954854;99.463036697897072;98.468436323008784;97.223417251912944;95.385271931107584;98.563321490387264;98.195973630966064;98.758669877559024;96.588385324667472;481883;2.913676746967364
2014-07-01;100.51798367181786;101.36609868678694;96.43544879006824;100.9566652048101;98.915676764087088;99.463036697897072;94.145497175748112;97.223417251912944;96.164486408727328;98.563321490387264;98.232381796051904;98.758669877559024;460951;1.6387406040320184
2014-10-01;96.934650374761936;100.51798367181786;93.176161163058272;96.43544879006824;95.922533676788496;98.915676764087088;93.590160234769904;94.145497175748112;92.25158623194104;96.164486408727328;98.04366937200304;98.232381796051904;487402;2.1329650917914612
2015-01-01;98.460740837823472;96.934650374761936;97.971509566143248;93.176161163058272;96.020499432091392;95.922533676788496;94.430679598406976;93.590160234769904;92.58793986622656;92.25158623194104;98.437874662857696;98.04366937200304;468363;3.2118522305569996
2015-04-01;98.334421700367888;98.460740837823472;96.423627577777392;97.971509566143248;98.507106872159344;96.020499432091392;98.862447398994816;94.430679598406976;94.367769094906288;92.58793986622656;102.8999257987888;98.437874662857696;492396;2.1816499025697044
2015-07-01;99.805805689356848;98.334421700367888;100.05277037901612;96.423627577777392;98.570681097813008;98.507106872159344;99.460817964440704;98.862447398994816;94.876969284087504;94.367769094906288;102.9082020990821;102.8999257987888;475900;3.2430778976507256
2015-10-01;96.350856605017984;99.805805689356848;96.429981741669232;100.05277037901612;95.276195681247792;98.570681097813008;97.565636159103584;99.460817964440704;91.453134994536336;94.876969284087504;100.90826367971732;102.9082020990821;504395;3.4864444544749464
2016-01-01;97.453159571797776;96.350856605017984;98.791644750269008;96.429981741669232;96.404402499384752;95.276195681247792;96.96726559365768;97.565636159103584;92.416197082515568;91.453134994536336;100.899987379424;100.90826367971732;486151;3.7979088869103616
2016-04-01;97.400924910174432;97.453159571797776;97.633995005633632;98.791644750269008;96.134120481353968;96.404402499384752;97.508599674571808;96.96726559365768;93.374297215758384;92.416197082515568;100.02138627880446;100.899987379424;505817;2.7256517112242972
2016-07-01;98.664248375465888;97.400924910174432;96.969665970833616;97.633995005633632;97.255542489548496;96.134120481353968;97.451563190040032;97.508599674571808;93.68298170485232;93.374297215758384;101.03751123988292;100.02138627880446;488405;2.6276528682496412
2016-10-01;102.72800610723924;98.664248375465888;99.089524033624048;96.969665970833616;102.89688864052644;97.255542489548496;102.89495980786026;97.451563190040032;99.360005659500992;93.68298170485232;106.22850809364008;101.03751123988292;514489;2.0012093696408552
2017-01-01;103.25924332116096;102.72800610723924;101.31583699080618;99.089524033624048;101.13746129645252;102.89688864052644;101.59814856796902;102.89495980786026;98.47849565616216;99.360005659500992;104.02540126768068;106.22850809364008;495742;1.9728438283578508
2017-04-01;104.80604759971106;103.25924332116096;104.04196820347166;101.31583699080618;101.84604781803276;101.13746129645252;101.2419268007143;101.59814856796902;98.70784936937504;98.47849565616216;104.40305395794872;104.02540126768068;517983;2.4052176973095028
2017-07-01;102.67627738044302;104.80604759971106;104.05553749221446;104.04196820347166;97.884375036030288;101.84604781803276;95.85556666742584;101.2419268007143;95.10580366008272;98.70784936937504;99.25315567755272;104.40305395794872;499606;2.2933835648693224